ASA3 KLAX-KPHX

Flight info

Callsign ASA3
Flight time 0h 59m
Altitude 33000
Route DOTSS2 CNERY BLH HYDRR1
Aircraft B738/M-SDE2E3FGHIRWXY/LB1

Departure

Time 2026-05-04 03:00
Airport Los Angeles International Airport (KLAX)

Arrival

Time 2026-05-04 03:59
Airport Phoenix Sky Harbor International Airport (KPHX)
Time Latitude Longitude Altitude Speed Heading
2026-05-04 02:24 33.94613 -118.40325 128 ft 0 kts 249°
2026-05-04 02:51 33.94613 -118.40324 125 ft 2 kts 249°
2026-05-04 02:51 33.94622 -118.40295 120 ft 4 kts 249°
2026-05-04 02:51 33.94631 -118.40266 123 ft 4 kts 258°
2026-05-04 02:52 33.94629 -118.40243 120 ft 2 kts 323°
2026-05-04 02:52 33.94641 -118.40249 124 ft 4 kts 342°
2026-05-04 02:52 33.94668 -118.40252 122 ft 4 kts 358°
2026-05-04 02:52 33.94695 -118.40253 122 ft 4 kts 357°
2026-05-04 02:53 33.94716 -118.40255 121 ft 0 kts 353°
2026-05-04 02:56 33.94717 -118.40255 125 ft 1 kts 353°
2026-05-04 02:56 33.94763 -118.40262 123 ft 13 kts 352°
2026-05-04 02:56 33.94845 -118.40288 122 ft 14 kts 349°
2026-05-04 02:56 33.94909 -118.40182 125 ft 19 kts 83°
2026-05-04 02:57 33.94925 -118.40019 124 ft 21 kts 84°
2026-05-04 02:57 33.94940 -118.39944 124 ft 0 kts 60°
2026-05-04 02:57 33.94942 -118.39942 124 ft 0 kts 49°
2026-05-04 02:59 33.94943 -118.39941 124 ft 2 kts 49°
2026-05-04 02:59 33.95001 -118.39918 123 ft 16 kts 349°
2026-05-04 02:59 33.95027 -118.40069 124 ft 26 kts 261°
2026-05-04 02:59 33.94986 -118.40462 123 ft 78 kts 263°
2026-05-04 03:00 33.94892 -118.41359 125 ft 136 kts 263°
2026-05-04 03:00 33.94765 -118.42658 321 ft 166 kts 264°
2026-05-04 03:00 33.94646 -118.43969 1303 ft 147 kts 264°
2026-05-04 03:00 33.94524 -118.45215 2019 ft 155 kts 264°
2026-05-04 03:01 33.94378 -118.46626 2332 ft 186 kts 263°
2026-05-04 03:01 33.94288 -118.48269 2572 ft 211 kts 268°
2026-05-04 03:01 33.94236 -118.50148 2786 ft 238 kts 268°
2026-05-04 03:01 33.94148 -118.52184 3470 ft 246 kts 265°
2026-05-04 03:02 33.93981 -118.54265 4143 ft 255 kts 264°
2026-05-04 03:02 33.93806 -118.56387 5003 ft 256 kts 264°
2026-05-04 03:02 33.93300 -118.58424 5820 ft 259 kts 237°
2026-05-04 03:02 33.91908 -118.59832 6534 ft 270 kts 206°
2026-05-04 03:03 33.90062 -118.60321 7347 ft 275 kts 182°
2026-05-04 03:03 33.88172 -118.59928 8200 ft 279 kts 165°
2026-05-04 03:03 33.86356 -118.59172 9005 ft 281 kts 163°
2026-05-04 03:03 33.84515 -118.58361 9799 ft 283 kts 163°
2026-05-04 03:04 33.82649 -118.57543 10426 ft 291 kts 163°
2026-05-04 03:04 33.80665 -118.56689 10614 ft 314 kts 163°
2026-05-04 03:04 33.78571 -118.55798 11137 ft 323 kts 164°
2026-05-04 03:04 33.76442 -118.54899 11864 ft 325 kts 164°
2026-05-04 03:05 33.74304 -118.54001 12641 ft 326 kts 164°
2026-05-04 03:05 33.72153 -118.53085 13405 ft 330 kts 161°
2026-05-04 03:05 33.70221 -118.51581 14071 ft 345 kts 139°
2026-05-04 03:05 33.68807 -118.49195 14708 ft 361 kts 119°
2026-05-04 03:06 33.67913 -118.46332 15301 ft 372 kts 113°
2026-05-04 03:06 33.67084 -118.43346 15820 ft 381 kts 113°
2026-05-04 03:06 33.66222 -118.40303 16384 ft 389 kts 114°
2026-05-04 03:06 33.65320 -118.37210 16956 ft 396 kts 115°
2026-05-04 03:07 33.64588 -118.33975 17459 ft 410 kts 104°
2026-05-04 03:07 33.64332 -118.30517 18010 ft 422 kts 94°
2026-05-04 03:07 33.64329 -118.26964 18532 ft 429 kts 93°
2026-05-04 03:07 33.64370 -118.23359 19040 ft 435 kts 92°
2026-05-04 03:08 33.64414 -118.19716 19615 ft 438 kts 92°
2026-05-04 03:08 33.64445 -118.16055 20188 ft 441 kts 93°
2026-05-04 03:08 33.64461 -118.12360 20757 ft 445 kts 93°
2026-05-04 03:08 33.64466 -118.08634 21293 ft 449 kts 94°
2026-05-04 03:09 33.64463 -118.04921 21798 ft 453 kts 94°
2026-05-04 03:09 33.64457 -118.01133 22341 ft 456 kts 94°
2026-05-04 03:09 33.64451 -117.97307 22882 ft 460 kts 94°
2026-05-04 03:09 33.64443 -117.93454 23367 ft 464 kts 94°
2026-05-04 03:10 33.64435 -117.89567 23797 ft 468 kts 94°
2026-05-04 03:10 33.64427 -117.85635 24171 ft 473 kts 94°
2026-05-04 03:10 33.64397 -117.81664 24539 ft 478 kts 97°
2026-05-04 03:10 33.64027 -117.77708 24864 ft 477 kts 107°
2026-05-04 03:11 33.63174 -117.73881 25259 ft 475 kts 113°
2026-05-04 03:11 33.62199 -117.70075 25664 ft 478 kts 114°
2026-05-04 03:11 33.61216 -117.66299 26008 ft 483 kts 114°
2026-05-04 03:11 33.60218 -117.62427 26344 ft 489 kts 114°
2026-05-04 03:12 33.59225 -117.58508 26690 ft 493 kts 114°
2026-05-04 03:12 33.58236 -117.54545 27041 ft 498 kts 113°
2026-05-04 03:12 33.57247 -117.50551 27409 ft 502 kts 113°
2026-05-04 03:12 33.56253 -117.46525 27729 ft 505 kts 113°
2026-05-04 03:13 33.55251 -117.42476 28089 ft 509 kts 113°
2026-05-04 03:13 33.54236 -117.38385 28392 ft 513 kts 114°
2026-05-04 03:13 33.53210 -117.34263 28590 ft 520 kts 114°
2026-05-04 03:13 33.52170 -117.30094 28860 ft 524 kts 114°
2026-05-04 03:14 33.51149 -117.25945 29176 ft 529 kts 111°
2026-05-04 03:14 33.50410 -117.21577 29450 ft 541 kts 102°
2026-05-04 03:14 33.50203 -117.17041 29736 ft 549 kts 94°
2026-05-04 03:14 33.50190 -117.12468 30141 ft 550 kts 93°
2026-05-04 03:15 33.50194 -117.07875 30448 ft 551 kts 94°
2026-05-04 03:15 33.50184 -117.03281 30787 ft 552 kts 94°
2026-05-04 03:15 33.50151 -116.98681 31150 ft 552 kts 95°
2026-05-04 03:15 33.50097 -116.94097 31574 ft 550 kts 95°
2026-05-04 03:16 33.50030 -116.89527 32046 ft 547 kts 96°
2026-05-04 03:16 33.49958 -116.85055 32537 ft 541 kts 96°
2026-05-04 03:16 33.49885 -116.80581 33020 ft 537 kts 96°
2026-05-04 03:17 33.49733 -116.71617 32936 ft 535 kts 96°
2026-05-04 03:17 33.49584 -116.62776 32924 ft 530 kts 96°
2026-05-04 03:18 33.49426 -116.53936 32920 ft 532 kts 96°
2026-05-04 03:18 33.49265 -116.45107 32859 ft 535 kts 96°
2026-05-04 03:19 33.49113 -116.36179 32845 ft 537 kts 96°
2026-05-04 03:19 33.48988 -116.27255 32826 ft 533 kts 96°
2026-05-04 03:20 33.48855 -116.18398 32779 ft 532 kts 96°
2026-05-04 03:20 33.48709 -116.09532 32777 ft 533 kts 96°
2026-05-04 03:21 33.49377 -116.00696 32791 ft 540 kts 78°
2026-05-04 03:21 33.51753 -115.92147 32805 ft 541 kts 68°
2026-05-04 03:22 33.54370 -115.83678 32786 ft 542 kts 69°
2026-05-04 03:22 33.56891 -115.75147 32766 ft 544 kts 70°
2026-05-04 03:23 33.59369 -115.66583 32774 ft 542 kts 70°
2026-05-04 03:23 33.61449 -115.57987 32735 ft 540 kts 82°
2026-05-04 03:23 33.61833 -115.53531 32787 ft 535 kts 93°
2026-05-04 03:24 33.61756 -115.49087 32791 ft 531 kts 97°
2026-05-04 03:24 33.61427 -115.40248 32752 ft 532 kts 97°
2026-05-04 03:25 33.61135 -115.31389 32775 ft 532 kts 96°
2026-05-04 03:25 33.60897 -115.22518 32769 ft 533 kts 96°
2026-05-04 03:26 33.60670 -115.13685 32755 ft 534 kts 96°
2026-05-04 03:26 33.60431 -115.04785 32757 ft 535 kts 96°
2026-05-04 03:27 33.60182 -114.95862 32753 ft 535 kts 96°
2026-05-04 03:27 33.59926 -114.86959 32560 ft 534 kts 96°
2026-05-04 03:27 33.59797 -114.82511 32131 ft 531 kts 96°
2026-05-04 03:28 33.59668 -114.78116 31853 ft 524 kts 96°
2026-05-04 03:28 33.59368 -114.73782 31347 ft 519 kts 105°
2026-05-04 03:28 33.58648 -114.69643 31106 ft 509 kts 109°
2026-05-04 03:28 33.57792 -114.65535 30588 ft 508 kts 110°
2026-05-04 03:29 33.56900 -114.61448 30258 ft 504 kts 110°
2026-05-04 03:29 33.56029 -114.57392 29849 ft 502 kts 109°
2026-05-04 03:29 33.55188 -114.53337 29392 ft 500 kts 108°
2026-05-04 03:29 33.54379 -114.49302 28989 ft 496 kts 108°
2026-05-04 03:30 33.53592 -114.45297 28559 ft 492 kts 108°
2026-05-04 03:30 33.52815 -114.41314 28160 ft 488 kts 108°
2026-05-04 03:30 33.52045 -114.37366 27759 ft 485 kts 108°
2026-05-04 03:30 33.51289 -114.33504 27364 ft 481 kts 108°
2026-05-04 03:31 33.50524 -114.29615 26970 ft 477 kts 108°
2026-05-04 03:31 33.49764 -114.25764 26578 ft 474 kts 108°
2026-05-04 03:31 33.49006 -114.21936 26180 ft 470 kts 108°
2026-05-04 03:31 33.48253 -114.18140 25814 ft 466 kts 108°
2026-05-04 03:32 33.47506 -114.14375 25435 ft 463 kts 108°
2026-05-04 03:32 33.46764 -114.10641 25050 ft 460 kts 108°
2026-05-04 03:32 33.46024 -114.06928 24672 ft 456 kts 108°
2026-05-04 03:32 33.45289 -114.03260 24402 ft 450 kts 108°
2026-05-04 03:33 33.44562 -113.99633 24082 ft 445 kts 108°
2026-05-04 03:33 33.43851 -113.96097 23817 ft 441 kts 108°
2026-05-04 03:33 33.43137 -113.92547 23524 ft 436 kts 108°
2026-05-04 03:33 33.42432 -113.89037 23195 ft 432 kts 108°
2026-05-04 03:34 33.41735 -113.85565 22892 ft 426 kts 108°
2026-05-04 03:34 33.41051 -113.82157 22782 ft 416 kts 108°
2026-05-04 03:34 33.40378 -113.78811 22490 ft 412 kts 108°
2026-05-04 03:34 33.39710 -113.75503 22274 ft 406 kts 108°
2026-05-04 03:35 33.39050 -113.72241 22013 ft 402 kts 108°
2026-05-04 03:35 33.38393 -113.69001 21743 ft 399 kts 108°
2026-05-04 03:35 33.37749 -113.65830 21512 ft 396 kts 108°
2026-05-04 03:35 33.37102 -113.62644 21251 ft 393 kts 108°
2026-05-04 03:36 33.36459 -113.59478 20998 ft 390 kts 108°
2026-05-04 03:36 33.35819 -113.56339 20734 ft 388 kts 108°
2026-05-04 03:36 33.35183 -113.53215 20477 ft 385 kts 108°
2026-05-04 03:36 33.34550 -113.50114 20201 ft 384 kts 108°
2026-05-04 03:37 33.33914 -113.47006 19933 ft 385 kts 108°
2026-05-04 03:37 33.33299 -113.43870 19674 ft 389 kts 107°
2026-05-04 03:37 33.32750 -113.40706 19301 ft 388 kts 106°
2026-05-04 03:37 33.32232 -113.37592 19048 ft 386 kts 105°
2026-05-04 03:38 33.31707 -113.34451 18798 ft 384 kts 106°
2026-05-04 03:38 33.31177 -113.31328 18545 ft 382 kts 106°
2026-05-04 03:38 33.30643 -113.28228 18304 ft 380 kts 106°
2026-05-04 03:38 33.30108 -113.25145 18054 ft 378 kts 106°
2026-05-04 03:39 33.29578 -113.22070 17767 ft 377 kts 105°
2026-05-04 03:39 33.29120 -113.18992 17498 ft 375 kts 104°
2026-05-04 03:39 33.28700 -113.15929 17249 ft 372 kts 103°
2026-05-04 03:39 33.28280 -113.12892 17008 ft 369 kts 104°
2026-05-04 03:40 33.27852 -113.09877 16766 ft 367 kts 104°
2026-05-04 03:40 33.27440 -113.06923 16514 ft 365 kts 101°
2026-05-04 03:40 33.27325 -113.03885 16273 ft 366 kts 91°
2026-05-04 03:40 33.27434 -113.00870 16169 ft 361 kts 90°
2026-05-04 03:41 33.27577 -112.97886 16038 ft 358 kts 90°
2026-05-04 03:41 33.27703 -112.94910 15831 ft 361 kts 90°
2026-05-04 03:41 33.27805 -112.91919 15588 ft 359 kts 91°
2026-05-04 03:41 33.27888 -112.88951 15385 ft 357 kts 91°
2026-05-04 03:42 33.27961 -112.85981 15158 ft 355 kts 91°
2026-05-04 03:42 33.28031 -112.83034 14937 ft 354 kts 91°
2026-05-04 03:42 33.28166 -112.80118 14702 ft 350 kts 88°
2026-05-04 03:42 33.28420 -112.77288 14481 ft 345 kts 86°
2026-05-04 03:43 33.28710 -112.74463 14271 ft 340 kts 86°
2026-05-04 03:43 33.28999 -112.71678 14053 ft 335 kts 86°
2026-05-04 03:43 33.29275 -112.68926 13829 ft 332 kts 86°
2026-05-04 03:43 33.29543 -112.66205 13634 ft 328 kts 86°
2026-05-04 03:44 33.29801 -112.63511 13383 ft 325 kts 86°
2026-05-04 03:44 33.30054 -112.60832 13160 ft 323 kts 87°
2026-05-04 03:44 33.30302 -112.58174 12944 ft 322 kts 87°
2026-05-04 03:44 33.30546 -112.55542 12733 ft 323 kts 86°
2026-05-04 03:45 33.30793 -112.52877 12519 ft 323 kts 86°
2026-05-04 03:45 33.31039 -112.50213 12295 ft 323 kts 86°
2026-05-04 03:45 33.31284 -112.47549 12067 ft 322 kts 86°
2026-05-04 03:45 33.31529 -112.44885 11857 ft 322 kts 87°
2026-05-04 03:46 33.31774 -112.42223 11641 ft 323 kts 87°
2026-05-04 03:46 33.32017 -112.39564 11439 ft 319 kts 87°
2026-05-04 03:46 33.32257 -112.36944 11230 ft 315 kts 87°
2026-05-04 03:46 33.32489 -112.34401 11005 ft 310 kts 88°
2026-05-04 03:47 33.32718 -112.31861 10837 ft 305 kts 87°
2026-05-04 03:47 33.32949 -112.29348 10608 ft 303 kts 88°
2026-05-04 03:47 33.33178 -112.26850 10434 ft 302 kts 87°
2026-05-04 03:47 33.33404 -112.24358 10250 ft 300 kts 87°
2026-05-04 03:48 33.33628 -112.21895 10030 ft 296 kts 88°
2026-05-04 03:48 33.33848 -112.19464 9833 ft 291 kts 88°
2026-05-04 03:48 33.34064 -112.17083 9648 ft 286 kts 88°
2026-05-04 03:48 33.34275 -112.14732 9435 ft 282 kts 88°
2026-05-04 03:49 33.34481 -112.12446 9226 ft 278 kts 88°
2026-05-04 03:49 33.34685 -112.10174 9058 ft 272 kts 88°
2026-05-04 03:49 33.34818 -112.07943 8805 ft 268 kts 94°
2026-05-04 03:49 33.34784 -112.05717 8500 ft 267 kts 96°
2026-05-04 03:50 33.34726 -112.03492 8158 ft 268 kts 96°
2026-05-04 03:50 33.34676 -112.01262 7847 ft 269 kts 95°
2026-05-04 03:50 33.34639 -111.99029 7567 ft 269 kts 95°
2026-05-04 03:50 33.34607 -111.96798 7302 ft 268 kts 95°
2026-05-04 03:51 33.34576 -111.94569 7036 ft 268 kts 95°
2026-05-04 03:51 33.34532 -111.92367 6819 ft 261 kts 96°
2026-05-04 03:51 33.34461 -111.90236 6635 ft 252 kts 97°
2026-05-04 03:51 33.34377 -111.88200 6464 ft 246 kts 97°
2026-05-04 03:52 33.34290 -111.86172 6210 ft 243 kts 97°
2026-05-04 03:52 33.34208 -111.84161 5960 ft 242 kts 97°
2026-05-04 03:52 33.34125 -111.82140 5747 ft 244 kts 97°
2026-05-04 03:52 33.34036 -111.80115 5526 ft 244 kts 97°
2026-05-04 03:53 33.33987 -111.78077 5257 ft 248 kts 94°
2026-05-04 03:53 33.33975 -111.76003 5123 ft 251 kts 94°
2026-05-04 03:53 33.34273 -111.73915 5044 ft 261 kts 62°
2026-05-04 03:53 33.35521 -111.72419 5069 ft 254 kts 22°
2026-05-04 03:54 33.37172 -111.72043 5100 ft 244 kts 350°
2026-05-04 03:54 33.38773 -111.72564 5067 ft 235 kts 325°
2026-05-04 03:54 33.40017 -111.73744 5044 ft 226 kts 302°
2026-05-04 03:54 33.40901 -111.75272 5065 ft 223 kts 296°
2026-05-04 03:55 33.41709 -111.76812 5059 ft 213 kts 296°
2026-05-04 03:55 33.42477 -111.78276 4975 ft 204 kts 296°
2026-05-04 03:55 33.43225 -111.79695 4764 ft 201 kts 296°
2026-05-04 03:55 33.43930 -111.81167 4435 ft 207 kts 284°
2026-05-04 03:56 33.44044 -111.82810 4091 ft 198 kts 263°
2026-05-04 03:56 33.44046 -111.84462 3709 ft 200 kts 268°
2026-05-04 03:56 33.44075 -111.86120 3341 ft 200 kts 268°
2026-05-04 03:56 33.44080 -111.87795 2951 ft 200 kts 268°
2026-05-04 03:57 33.44079 -111.89440 2699 ft 190 kts 267°
2026-05-04 03:57 33.44080 -111.90458 2539 ft 180 kts 266°
2026-05-04 03:57 33.44080 -111.92353 2239 ft 162 kts 265°
2026-05-04 03:57 33.44080 -111.93668 2091 ft 157 kts 265°
2026-05-04 03:58 33.44081 -111.96124 1728 ft 138 kts 267°
2026-05-04 03:58 33.44081 -111.97244 1533 ft 134 kts 269°
2026-05-04 03:58 33.44082 -111.98333 1333 ft 127 kts 269°
2026-05-04 03:59 33.44082 -111.99432 1162 ft 138 kts 270°
2026-05-04 03:59 33.44083 -112.00482 1129 ft 103 kts 269°
2026-05-04 03:59 33.44080 -112.00897 1131 ft 43 kts 269°
2026-05-04 03:59 33.44047 -112.01072 1135 ft 10 kts 216°
2026-05-04 04:00 33.43996 -112.01090 1130 ft 0 kts 187°